Tracking 25620 objects as of 18-May-2022
HD Live streaming from Space Station
objects crossing your sky now

DMSP 5D-3 F18 DEB

Track DMSP 5D-3 F18 DEB now!
10-day predictions


NORAD ID: 36099
Int'l Code: 2009-057E
Perigee: 806.0 km
Apogee: 820.4 km
Inclination: 98.7 °
Period: 101.0 minutes
Semi major axis: 7184 km
RCS: 0.1565 m2 (medium)
Launch date: October 18, 2009
Source: United States (US)
Launch site: AIR FORCE WESTERN TEST RANGE (AFWTR)

Note: This is SATELLITE DEBRIS
aabbcc
Your satellite tracking list
Your tracking list is empty




NASA's NSSDC Master Catalog

Two Line Element Set (TLE):
1 36099U 09057E   22138.19910864  .00004766  00000-0  20246-2 0  9991
2 36099  98.6832 211.4709 0010041  70.5048 289.7216 14.25719942646790
Source of the keplerian elements: AFSPC